SCP
0 0 0 0 0 0 0 0 0 0 0 0 0 0 0 0 0 0 0 0 0 0 0 0 0 0 0 0 0 0 0 0 0 0 0 0 0 0 0 0 0 0 0 0
0 0 0 0 0 0 0 0 0 0 0 0 0 0 0 0 0 0 0 0 0 0 0 0 0 0 0 0 0 0 0 0 0 0 0 0 0 0 0 0 0 0 0 0
0 0 0 0 0 0 0 0 0 0 0 0 0 0 0 -0 0 -0 -0 0 0 0 0 0 0 0 0 0 0 0 0 0 0 0 0 0 0 0 0 0 0 0 0 0
0 0 0 0 0 0 0 0 0 0 0 0 0 0 0 0 0 0 0 0 0 0 0 0 0 0 0 0 0 0 0 0 0 0 0 0 0 0 0 0 0 0 0 0
0 0 0 0 0 0 0 0 0 0 0 0 0 0 0 0 0 0 0 0 0 0 0 0 0 0 0 0 0 0 0 0 0 0 0 0 0 0 0 0 0 0 0 0
0 0 0 0 0 0 0 0 0 0 0 0 0 0 0 0 0 0 0 0 0 0 0 0 0 0 0 0 0 0 0 0 0 0 0 0 0 0 0 0 0 0 0 0
0 0 0 0 0 0 0 0 0 0 0 0 0 0 0 0 0 0 0 0 0 0 0 0 0 0 0 0 0 0 0 0 0 0 0 0 0 0 0 0 0 0 0 0
0 0 0 0 0 0 0 0 0 0 0 0 0 0 0 0 0 0 0 0 0 0 0 0 0 0 0 0 0 0 0 0 0 0 0 0 0 0 0 0 0 0 0 0
0 0 0 0 0 0 0 0 0 0 0 0 0 0 0 0 0 0 0 0 -0 -0 0 0 0 0 0 0 0 0 0 0 0 0 0 0 0 0 0 0 0 0 0 0
0 0 0 0 0 0 0 0 0 0 0 0 0 0 0 0 0 0 0 0 0 0 0 0 0 0 -0 0 0 0 0 0 0 0 0 0 0 0 0 0 0 0 0 0
0 0 0 0 0 0 0 0 0 0 0 0 0 0 0 0 0 0 0 0 0 0 0 -0 -0 -0 -0 -0 -0 -0 -0 -0 0 0 0 0 0 0 0 0 0 0 0 0
0 0 0 0 0 0 0 0 0 0 0 0 0 0 0 0 0 0 0 0 0 0 0 0 0 -0 -0 -0 0 0 0 0 0 0 0 0 0 0 0 0 0 0 0 0
0 0 0 0 0 0 0 0 0 0 0 0 0 0 0 0 0 0 0 0 0 0 0 0 0 0 0 0 0 0 0 0 0 0 0 0 0 0 0 0 0 0 0 0
0 0 0 0 0 0 0 0 0 0 0 0 0 0 0 0 0 0 0 0 0 0 0 0 0 0 0 0 0 0 0 0 0 0 0 0 0 0 0 0 0 0 0 0
0 0 0 0 0 0 0 0 0 0 0 0 0 0 0 0 0 0 0 0 0 0 0 0 0 0 0 0 0 0 0 0 0 0 0 0 0 0 0 0 0 0 0 0
0 0 0 0 0 0 0 0 0 0 0 0 0 0 0 0 0 0 0 0 0 0 0 0 0 0 0 0 0 0 0 0 0 0 0 0 0 0 0 0 0 0 0 0
0 0 0 0 0 0 0 0 0 0 0 0 0 0 0 0 0 0 0 0 0 0 0 0 0 0 0 0 0 0 0 0 0 0 0 0 0 0 0 0 0 0 0 0
0 0 0 0 0 0 0 0 0 0 0 0 0 0 0 0 0 0 0 0 0 0 0 0 0 0 0 0 0 0 0 0 0 0 0 0 0 0 0 0 0 0 0 0
0 0 0 0 0 0 0 0 0 0 0 0 0 0 0 0 0 0 0 0 0 0 0 0 0 0 0 0 0 0 0 0 0 0 0 0 -0 0 0 0 0 0 0 0
0 0 0 0 0 0 0 0 0 0 0 0 0 0 0 0 0 0 0 0 0 0 0 0 0 0 0 0 0 -0 -0 -0 -0 -0 -0 -0 -0 -0 -0 0 0 0 0 0
0 0 0 0 0 0 0 0 0 0 0 0 0 0 0 0 0 0 0 0 0 0 0 0 0 0 0 0 -0 -0 -0 -0 -0 -0 -0 -0 -0 -0 -0 -0 -0 -0 0 0
0 0 0 0 0 0 0 0 0 0 0 0 0 0 0 0 0 0 0 0 0 0 0 0 0 0 -0 -0 -0 -0 0 0 0 -0 -0 0 0 0 0 -0 -0 0 0 0
0 0 0 0 0 0 0 0 0 0 0 0 0 0 0 -0 0 0 0 0 0 0 0 0 0 -0 -0 -0 -0 -0 -0 0 0 -0 -0 0 0 0 0 0 0 -0 0 -0
0 0 0 0 0 0 0 0 0 0 0 0 0 0 -0 -0 0 0 0 0 0 0 0 0 0 0 -0 -0 0 0 -0 -0 -0 -0 -0 0 0 0 -0 -0 -0 -0 -0 -0
0 0 0 0 0 0 0 0 0 0 0 0 0 0 -0 -0 -0 -0 -0 0 0 0 0 0 0 0 -0 -0 -0 -0 -0 -0 0 0 0 0 -0 -0 -0 -0 -0 -0 -0 -0
0 0 0 0 0 0 0 0 0 0 -0 -0 -0 0 -0 -0 -0 -0 0 0 0 0 0 0 0 -0 -0 -0 -0 -0 -0 -0 0 0 0 -0 -0 -0 -0 -0 -0 0 0 0
Wind_Speed_500mb
14 8 18 34 17 10 5 8 10 9 18 16 30 45 40 20 33 50 62 49 42 16 23 43 46 39 31 25 24 27 24 20 14 17 21 23 29 29 28 35 43 48 55 59
2 16 20 8 10 14 18 24 25 11 21 14 21 45 38 12 22 48 54 39 19 32 42 38 39 35 22 20 18 16 15 8 1 8 14 16 24 33 33 30 34 40 47 52
13 11 17 16 12 17 22 19 21 27 4 10 11 26 14 28 20 35 42 47 29 41 46 37 31 30 19 15 16 15 14 10 7 9 13 17 19 25 33 34 34 35 42 48
11 25 20 12 11 20 19 15 11 7 10 3 6 16 31 17 22 29 38 53 46 43 39 31 34 31 30 29 23 19 19 17 14 12 16 23 26 32 33 36 40 43 43 42
17 6 14 14 25 13 18 10 6 1 2 5 10 4 13 19 20 20 23 43 49 45 36 35 36 34 32 30 25 24 24 20 16 15 20 26 29 30 37 40 42 43 44 41
13 3 11 16 8 8 12 7 6 7 5 4 11 14 6 14 16 25 20 38 42 45 39 37 36 31 33 29 32 29 29 29 24 24 24 25 31 34 37 39 43 46 46 46
7 31 12 11 9 7 5 9 4 5 2 10 3 5 7 12 19 37 34 42 44 42 48 46 50 51 40 31 40 38 39 37 37 33 31 31 31 33 35 38 44 47 49 48
10 8 16 12 24 15 14 14 8 11 6 6 9 9 4 9 21 37 38 37 36 38 37 42 45 48 45 40 35 38 39 38 36 35 35 34 33 32 33 36 40 43 47 49
9 9 5 10 8 19 9 8 5 5 3 1 7 8 9 10 11 16 21 24 31 28 30 36 37 44 46 47 50 45 41 38 41 40 38 36 37 37 37 34 35 38 42 44
10 10 10 8 10 8 13 16 7 3 7 10 8 7 9 13 8 7 8 12 15 19 21 25 29 29 34 39 39 37 38 42 39 38 37 36 33 33 36 37 36 38 41 43
11 12 5 10 13 18 6 6 3 8 7 9 3 8 10 17 17 17 15 15 12 14 18 19 21 25 30 31 33 35 37 39 40 40 41 39 40 40 39 41 41 40 41 43
8 5 8 25 2 9 22 20 14 9 10 7 6 9 14 20 23 23 20 19 16 12 17 21 25 21 23 28 34 34 35 37 37 38 39 41 40 40 42 44 42 41 40 40
15 6 3 7 8 7 14 17 24 9 5 12 9 5 14 19 28 23 24 21 18 15 16 19 20 19 20 29 32 34 36 35 35 39 42 44 45 47 47 48 47 44 42 43
15 9 12 16 6 2 8 25 28 20 7 10 14 15 26 23 28 26 25 19 15 15 15 19 22 29 33 34 32 32 30 32 35 38 43 47 50 51 55 55 53 53 51 45
8 12 11 10 10 4 7 26 28 30 23 15 12 20 30 30 28 32 29 20 14 11 13 18 21 24 25 22 25 27 30 34 38 42 45 46 47 51 55 57 59 57 55 55
4 3 4 7 19 17 20 28 16 26 30 25 13 13 22 35 38 28 23 18 12 11 10 12 15 17 22 27 30 32 33 34 38 41 45 44 47 50 49 54 59 63 65 65
12 11 8 14 9 14 13 19 22 6 3 12 13 13 32 28 29 28 24 18 17 15 13 12 11 15 18 24 29 34 36 37 42 45 44 44 45 46 51 54 56 61 65 67
12 12 6 2 6 14 1 7 9 13 4 7 15 32 31 29 29 27 21 20 18 15 15 11 11 14 17 19 23 25 32 38 43 45 44 44 45 46 46 48 51 56 60 65
10 9 6 6 8 4 4 7 10 8 8 1 21 28 38 40 37 14 15 16 16 14 15 13 11 13 15 17 23 25 33 37 41 43 46 48 47 44 44 48 51 54 55 61
15 9 5 5 6 11 9 6 12 6 7 17 24 31 40 35 7 7 23 20 20 16 11 11 9 10 9 17 18 25 31 31 35 39 41 43 45 47 47 51 53 52 55 58
10 5 12 10 7 8 5 11 9 10 10 23 40 43 46 9 6 42 32 27 20 19 13 10 10 10 15 16 20 25 26 33 30 30 35 39 41 45 47 49 49 49 54 57
16 13 7 8 5 13 7 6 11 9 20 33 34 38 39 27 44 44 38 32 29 22 14 11 11 13 15 13 13 22 30 24 24 27 32 38 43 45 48 53 54 55 57 60
5 11 8 6 8 2 3 3 18 26 40 28 30 31 46 53 52 48 45 40 31 20 18 15 15 15 12 11 11 18 26 23 25 29 34 38 42 46 50 57 61 63 66 68
3 4 7 6 6 6 16 25 21 29 29 28 31 44 56 62 56 54 45 37 29 21 18 18 18 19 20 18 18 22 22 24 25 30 34 38 43 47 52 56 62 65 67 63
5 12 13 6 9 16 13 23 34 36 36 37 37 45 51 56 55 49 42 33 26 21 21 21 23 24 25 24 23 20 19 21 27 29 32 36 38 42 46 50 54 56 55 53
6 10 9 9 32 10 28 42 39 41 40 40 46 45 44 50 50 44 38 29 26 26 25 25 23 21 21 18 20 22 22 22 24 28 32 35 36 38 39 40 42 44 46 48
Wind_Direction_500mb
178 167 209 223 199 219 301 255 224 236 257 284 266 276 291 315 300 288 289 297 300 261 170 156 150 144 142 138 146 155 173 185 198 216 224 244 263 266 264 261 264 265 266 262
122 240 234 218 198 244 268 282 284 256 251 235 278 283 297 324 277 283 286 283 234 157 152 139 137 134 127 125 116 124 134 138 78 354 339 303 285 292 296 286 279 277 275 273
182 225 199 182 214 232 243 254 275 276 261 247 317 290 333 333 334 322 297 295 261 181 151 134 117 112 102 95 92 86 93 89 51 354 331 325 310 296 292 291 291 287 283 281
231 245 242 199 207 214 252 232 248 274 28 284 68 292 332 344 27 9 19 38 80 95 105 107 103 93 87 55 56 65 70 70 58 20 342 335 328 318 313 308 304 301 303 295
227 216 225 241 237 200 258 175 214 237 103 341 196 210 285 5 360 10 51 61 63 78 83 81 76 67 64 61 34 52 47 54 44 17 354 334 329 322 315 312 308 306 310 309
222 246 173 202 229 198 135 109 49 35 83 298 222 179 314 12 340 338 72 66 77 72 58 45 42 47 45 34 25 41 36 35 27 19 360 345 334 327 321 315 313 314 316 319
224 238 221 166 133 43 118 138 271 293 251 238 262 160 56 21 17 43 53 51 46 50 61 39 27 22 25 23 13 20 26 24 22 15 3 353 344 335 330 325 323 321 318 318
186 293 164 194 199 177 184 167 191 232 212 276 324 253 101 82 83 86 81 74 55 40 38 40 24 12 9 10 16 23 22 18 16 12 5 360 353 347 340 337 333 328 322 317
190 267 159 186 153 149 191 186 207 96 169 44 214 117 142 137 112 92 97 99 96 70 31 28 18 1 359 3 9 16 14 15 15 9 4 360 356 350 346 342 340 336 329 320
209 268 207 150 117 62 178 158 91 99 209 228 241 196 182 177 172 130 115 96 93 80 52 26 12 355 347 358 359 9 9 16 15 10 6 2 358 357 352 346 340 337 331 328
162 200 230 131 197 168 150 189 163 134 172 197 261 246 185 164 178 175 163 127 98 69 67 33 11 356 356 357 4 14 16 17 15 13 12 9 8 2 358 354 351 345 337 331
178 167 246 233 262 231 202 186 168 145 203 218 148 263 156 168 181 171 155 128 111 73 39 25 15 10 2 356 12 16 19 17 16 18 19 19 18 13 11 7 2 357 350 348
178 186 204 291 333 325 256 219 198 123 127 196 170 228 163 191 166 163 124 111 96 63 24 10 10 5 5 14 25 24 24 18 23 29 28 27 26 23 21 16 14 9 5 4
129 163 194 227 203 295 212 224 195 180 180 174 217 156 181 148 141 127 118 118 87 47 32 15 13 9 17 21 23 26 29 28 34 39 37 37 35 35 33 29 24 23 20 14
168 188 209 241 225 212 278 254 235 205 207 196 196 178 172 165 148 139 136 122 98 71 43 20 22 26 30 29 38 39 39 39 42 46 45 42 42 43 45 41 39 36 34 31
178 189 155 269 230 221 244 237 242 225 215 226 133 128 131 126 128 135 140 126 116 106 87 59 60 53 51 44 46 48 48 48 49 49 47 43 44 44 43 50 48 46 42 41
157 146 167 252 203 238 246 240 221 125 13 143 172 171 148 153 143 141 136 142 143 133 130 108 71 61 55 58 58 59 58 59 56 53 47 43 41 42 41 41 43 45 45 44
149 139 196 122 110 226 78 351 221 132 92 102 106 143 148 134 117 131 146 153 144 144 134 115 108 88 83 80 64 62 58 56 55 50 48 45 40 39 40 41 41 44 44 44
151 138 153 191 219 354 213 201 160 171 205 124 130 128 126 126 114 110 168 164 151 134 137 134 113 105 92 86 74 59 56 47 46 44 43 43 42 40 40 42 42 41 40 42
147 123 128 160 226 224 232 146 141 116 294 175 147 152 153 152 139 160 165 163 156 143 136 143 129 102 92 66 73 65 54 48 42 41 43 43 45 43 42 44 43 42 40 40
156 155 196 217 248 286 206 143 134 100 235 143 156 159 162 170 176 158 160 155 151 151 156 151 152 127 93 77 63 70 58 49 42 41 44 45 44 45 43 42 42 40 41 41
171 162 179 198 202 263 142 124 179 163 118 146 151 156 163 153 143 149 154 156 156 157 158 152 148 128 103 88 63 66 62 49 45 45 44 45 42 43 42 42 40 38 35 34
187 179 177 179 211 63 20 124 137 145 152 155 165 173 173 153 150 154 156 160 166 168 154 140 131 119 114 103 76 70 70 61 54 50 48 44 42 38 38 36 34 34 33 30
93 129 107 136 165 134 119 131 141 148 152 150 156 154 161 152 153 153 158 161 161 149 141 136 134 126 110 96 86 76 69 64 57 54 49 43 39 37 37 33 32 31 31 29
169 133 133 80 131 126 173 167 151 140 140 142 146 151 157 154 156 158 158 158 153 147 138 137 134 119 105 92 84 76 69 59 57 50 45 42 39 39 38 33 30 32 34 31
188 155 168 216 185 156 171 170 162 152 154 158 158 157 163 161 159 162 156 157 152 148 139 142 137 124 109 98 82 70 61 51 47 47 41 36 32 30 30 30 31 34 34 32
Wind_Speed_850mb
14 8 18 34 17 10 5 8 10 9 18 16 30 45 40 20 33 50 62 49 42 16 23 43 46 39 31 25 24 27 24 20 14 17 21 23 29 29 28 35 43 48 55 59
2 16 20 8 10 14 18 24 25 11 21 14 21 45 38 12 22 48 54 39 19 32 42 38 39 35 22 20 18 16 15 8 1 8 14 16 24 33 33 30 34 40 47 52
13 11 17 16 12 17 22 19 21 27 4 10 11 26 14 28 20 35 42 47 29 41 46 37 31 30 19 15 16 15 14 10 7 9 13 17 19 25 33 34 34 35 42 48
11 25 20 12 11 20 19 15 11 7 10 3 6 16 31 17 22 29 38 53 46 43 39 31 34 31 30 29 23 19 19 17 14 12 16 23 26 32 33 36 40 43 43 42
17 6 14 14 25 13 18 10 6 1 2 5 10 4 13 19 20 20 23 43 49 45 36 35 36 34 32 30 25 24 24 20 16 15 20 26 29 30 37 40 42 43 44 41
13 3 11 16 8 8 12 7 6 7 5 4 11 14 6 14 16 25 20 38 42 45 39 37 36 31 33 29 32 29 29 29 24 24 24 25 31 34 37 39 43 46 46 46
7 31 12 11 9 7 5 9 4 5 2 10 3 5 7 12 19 37 34 42 44 42 48 46 50 51 40 31 40 38 39 37 37 33 31 31 31 33 35 38 44 47 49 48
10 8 16 12 24 15 14 14 8 11 6 6 9 9 4 9 21 37 38 37 36 38 37 42 45 48 45 40 35 38 39 38 36 35 35 34 33 32 33 36 40 43 47 49
9 9 5 10 8 19 9 8 5 5 3 1 7 8 9 10 11 16 21 24 31 28 30 36 37 44 46 47 50 45 41 38 41 40 38 36 37 37 37 34 35 38 42 44
10 10 10 8 10 8 13 16 7 3 7 10 8 7 9 13 8 7 8 12 15 19 21 25 29 29 34 39 39 37 38 42 39 38 37 36 33 33 36 37 36 38 41 43
11 12 5 10 13 18 6 6 3 8 7 9 3 8 10 17 17 17 15 15 12 14 18 19 21 25 30 31 33 35 37 39 40 40 41 39 40 40 39 41 41 40 41 43
8 5 8 25 2 9 22 20 14 9 10 7 6 9 14 20 23 23 20 19 16 12 17 21 25 21 23 28 34 34 35 37 37 38 39 41 40 40 42 44 42 41 40 40
15 6 3 7 8 7 14 17 24 9 5 12 9 5 14 19 28 23 24 21 18 15 16 19 20 19 20 29 32 34 36 35 35 39 42 44 45 47 47 48 47 44 42 43
15 9 12 16 6 2 8 25 28 20 7 10 14 15 26 23 28 26 25 19 15 15 15 19 22 29 33 34 32 32 30 32 35 38 43 47 50 51 55 55 53 53 51 45
8 12 11 10 10 4 7 26 28 30 23 15 12 20 30 30 28 32 29 20 14 11 13 18 21 24 25 22 25 27 30 34 38 42 45 46 47 51 55 57 59 57 55 55
4 3 4 7 19 17 20 28 16 26 30 25 13 13 22 35 38 28 23 18 12 11 10 12 15 17 22 27 30 32 33 34 38 41 45 44 47 50 49 54 59 63 65 65
12 11 8 14 9 14 13 19 22 6 3 12 13 13 32 28 29 28 24 18 17 15 13 12 11 15 18 24 29 34 36 37 42 45 44 44 45 46 51 54 56 61 65 67
12 12 6 2 6 14 1 7 9 13 4 7 15 32 31 29 29 27 21 20 18 15 15 11 11 14 17 19 23 25 32 38 43 45 44 44 45 46 46 48 51 56 60 65
10 9 6 6 8 4 4 7 10 8 8 1 21 28 38 40 37 14 15 16 16 14 15 13 11 13 15 17 23 25 33 37 41 43 46 48 47 44 44 48 51 54 55 61
15 9 5 5 6 11 9 6 12 6 7 17 24 31 40 35 7 7 23 20 20 16 11 11 9 10 9 17 18 25 31 31 35 39 41 43 45 47 47 51 53 52 55 58
10 5 12 10 7 8 5 11 9 10 10 23 40 43 46 9 6 42 32 27 20 19 13 10 10 10 15 16 20 25 26 33 30 30 35 39 41 45 47 49 49 49 54 57
16 13 7 8 5 13 7 6 11 9 20 33 34 38 39 27 44 44 38 32 29 22 14 11 11 13 15 13 13 22 30 24 24 27 32 38 43 45 48 53 54 55 57 60
5 11 8 6 8 2 3 3 18 26 40 28 30 31 46 53 52 48 45 40 31 20 18 15 15 15 12 11 11 18 26 23 25 29 34 38 42 46 50 57 61 63 66 68
3 4 7 6 6 6 16 25 21 29 29 28 31 44 56 62 56 54 45 37 29 21 18 18 18 19 20 18 18 22 22 24 25 30 34 38 43 47 52 56 62 65 67 63
5 12 13 6 9 16 13 23 34 36 36 37 37 45 51 56 55 49 42 33 26 21 21 21 23 24 25 24 23 20 19 21 27 29 32 36 38 42 46 50 54 56 55 53
6 10 9 9 32 10 28 42 39 41 40 40 46 45 44 50 50 44 38 29 26 26 25 25 23 21 21 18 20 22 22 22 24 28 32 35 36 38 39 40 42 44 46 48
Wind_Direction_850mb
178 167 209 223 199 219 301 255 224 236 257 284 266 276 291 315 300 288 289 297 300 261 170 156 150 144 142 138 146 155 173 185 198 216 224 244 263 266 264 261 264 265 266 262
122 240 234 218 198 244 268 282 284 256 251 235 278 283 297 324 277 283 286 283 234 157 152 139 137 134 127 125 116 124 134 138 78 354 339 303 285 292 296 286 279 277 275 273
182 225 199 182 214 232 243 254 275 276 261 247 317 290 333 333 334 322 297 295 261 181 151 134 117 112 102 95 92 86 93 89 51 354 331 325 310 296 292 291 291 287 283 281
231 245 242 199 207 214 252 232 248 274 28 284 68 292 332 344 27 9 19 38 80 95 105 107 103 93 87 55 56 65 70 70 58 20 342 335 328 318 313 308 304 301 303 295
227 216 225 241 237 200 258 175 214 237 103 341 196 210 285 5 360 10 51 61 63 78 83 81 76 67 64 61 34 52 47 54 44 17 354 334 329 322 315 312 308 306 310 309
222 246 173 202 229 198 135 109 49 35 83 298 222 179 314 12 340 338 72 66 77 72 58 45 42 47 45 34 25 41 36 35 27 19 360 345 334 327 321 315 313 314 316 319
224 238 221 166 133 43 118 138 271 293 251 238 262 160 56 21 17 43 53 51 46 50 61 39 27 22 25 23 13 20 26 24 22 15 3 353 344 335 330 325 323 321 318 318
186 293 164 194 199 177 184 167 191 232 212 276 324 253 101 82 83 86 81 74 55 40 38 40 24 12 9 10 16 23 22 18 16 12 5 360 353 347 340 337 333 328 322 317
190 267 159 186 153 149 191 186 207 96 169 44 214 117 142 137 112 92 97 99 96 70 31 28 18 1 359 3 9 16 14 15 15 9 4 360 356 350 346 342 340 336 329 320
209 268 207 150 117 62 178 158 91 99 209 228 241 196 182 177 172 130 115 96 93 80 52 26 12 355 347 358 359 9 9 16 15 10 6 2 358 357 352 346 340 337 331 328
162 200 230 131 197 168 150 189 163 134 172 197 261 246 185 164 178 175 163 127 98 69 67 33 11 356 356 357 4 14 16 17 15 13 12 9 8 2 358 354 351 345 337 331
178 167 246 233 262 231 202 186 168 145 203 218 148 263 156 168 181 171 155 128 111 73 39 25 15 10 2 356 12 16 19 17 16 18 19 19 18 13 11 7 2 357 350 348
178 186 204 291 333 325 256 219 198 123 127 196 170 228 163 191 166 163 124 111 96 63 24 10 10 5 5 14 25 24 24 18 23 29 28 27 26 23 21 16 14 9 5 4
129 163 194 227 203 295 212 224 195 180 180 174 217 156 181 148 141 127 118 118 87 47 32 15 13 9 17 21 23 26 29 28 34 39 37 37 35 35 33 29 24 23 20 14
168 188 209 241 225 212 278 254 235 205 207 196 196 178 172 165 148 139 136 122 98 71 43 20 22 26 30 29 38 39 39 39 42 46 45 42 42 43 45 41 39 36 34 31
178 189 155 269 230 221 244 237 242 225 215 226 133 128 131 126 128 135 140 126 116 106 87 59 60 53 51 44 46 48 48 48 49 49 47 43 44 44 43 50 48 46 42 41
157 146 167 252 203 238 246 240 221 125 13 143 172 171 148 153 143 141 136 142 143 133 130 108 71 61 55 58 58 59 58 59 56 53 47 43 41 42 41 41 43 45 45 44
149 139 196 122 110 226 78 351 221 132 92 102 106 143 148 134 117 131 146 153 144 144 134 115 108 88 83 80 64 62 58 56 55 50 48 45 40 39 40 41 41 44 44 44
151 138 153 191 219 354 213 201 160 171 205 124 130 128 126 126 114 110 168 164 151 134 137 134 113 105 92 86 74 59 56 47 46 44 43 43 42 40 40 42 42 41 40 42
147 123 128 160 226 224 232 146 141 116 294 175 147 152 153 152 139 160 165 163 156 143 136 143 129 102 92 66 73 65 54 48 42 41 43 43 45 43 42 44 43 42 40 40
156 155 196 217 248 286 206 143 134 100 235 143 156 159 162 170 176 158 160 155 151 151 156 151 152 127 93 77 63 70 58 49 42 41 44 45 44 45 43 42 42 40 41 41
171 162 179 198 202 263 142 124 179 163 118 146 151 156 163 153 143 149 154 156 156 157 158 152 148 128 103 88 63 66 62 49 45 45 44 45 42 43 42 42 40 38 35 34
187 179 177 179 211 63 20 124 137 145 152 155 165 173 173 153 150 154 156 160 166 168 154 140 131 119 114 103 76 70 70 61 54 50 48 44 42 38 38 36 34 34 33 30
93 129 107 136 165 134 119 131 141 148 152 150 156 154 161 152 153 153 158 161 161 149 141 136 134 126 110 96 86 76 69 64 57 54 49 43 39 37 37 33 32 31 31 29
169 133 133 80 131 126 173 167 151 140 140 142 146 151 157 154 156 158 158 158 153 147 138 137 134 119 105 92 84 76 69 59 57 50 45 42 39 39 38 33 30 32 34 31
188 155 168 216 185 156 171 170 162 152 154 158 158 157 163 161 159 162 156 157 152 148 139 142 137 124 109 98 82 70 61 51 47 47 41 36 32 30 30 30 31 34 34 32